Location: Raitis
(47.2167°N, 11.3833°E)
Time: 11:14:20
(UTC+00:00)

Cosmos 2366 rocket - Pass Details

Date: 03 March 2021
Orbit: 954 x 998 km, 82.9° (Epoch: 22 April)

Event Time Altitude Azimuth Distance (km) Brightness Sun altitude
Rises 18:21:10 0° 162° (SSE) 3,681 6.8 -14.1°
Reaches altitude 10° 18:23:48 10° 155° (SSE) 2,742 6.1 -14.5°
Maximum altitude 18:29:36 40° 88° (E) 1,426 4.4 -15.5°
Drops below altitude 10° 18:35:28 10° 22° (NNE) 2,776 6.2 -16.5°
Sets 18:38:08 0° 15° (NNE) 3,731 7.0 -16.9°
